W5HRH Weather Reports


time (UTC)temp
C
wind
direction
speed
KPH
gust
KPH
rain 1hr
cm
rain 24hr
cm
rain mn
cm
humidity
%
barometer
mb
20260506002533 26 256 6.4 17.7 0.00 0.00 0.00 81 1008.7
20260506002029 26 157 6.4 17.7 0.00 0.00 0.00 81 1008.6
20260506001529 26 182 8.0 17.7 0.00 0.00 0.00 81 1008.6
20260506001030 26 167 8.0 17.7 0.00 0.00 0.00 80 1008.6
20260506000528 27 184 3.2 14.5 0.00 0.00 0.00 81 1008.6
20260506000028 27 188 4.8 14.5 0.00 0.00 0.00 80 1008.6
20260505235528 27 171 3.2 17.7 0.00 0.00 0.00 80 1008.4
20260505235029 27 168 4.8 17.7 0.00 0.00 0.00 80 1008.4
20260505234536 27 193 6.4 19.3 0.00 0.00 0.00 80 1008.3
20260505234026 27 146 6.4 17.7 0.00 0.00 0.00 80 1008.2
20260505233525 27 131 8.0 22.5 0.00 0.00 0.00 80 1008.4
20260505233032 27 198 4.8 14.5 0.00 0.00 0.00 80 1008.4
20260505232521 27 170 6.4 14.5 0.00 0.00 0.00 80 1008.5
20260505232020 27 178 4.8 16.1 0.00 0.00 0.00 80 1008.5
20260505231519 27 126 6.4 19.3 0.00 0.00 0.00 80 1008.5
20260505231017 27 138 6.4 19.3 0.00 0.00 0.00 80 1008.6
20260505230517 27 200 4.8 16.1 0.00 0.00 0.00 80 1008.4
20260505230017 27 167 8.0 19.3 0.00 0.00 0.00 79 1008.5
20260505225517 27 233 8.0 17.7 0.00 0.00 0.00 79 1008.5
20260505225017 27 167 6.4 14.5 0.00 0.00 0.00 79 1008.5
20260505224516 27 132 6.4 19.3 0.00 0.00 0.00 79 1008.5
20260505224016 27 159 4.8 20.9 0.00 0.00 0.00 79 1008.5
20260505223523 27 112 6.4 17.7 0.00 0.00 0.00 79 1008.5
20260505223015 27 179 6.4 20.9 0.00 0.00 0.00 79 1008.5
20260505222518 27 161 11.3 20.9 0.00 0.00 0.00 78 1008.6
20260505222017 28 198 3.2 16.1 0.00 0.00 0.00 78 1008.5
20260505221514 28 153 3.2 17.7 0.00 0.00 0.00 78 1008.6
20260505221020 28 138 8.0 17.7 0.00 0.00 0.00 77 1008.7
20260505220513 28 199 4.8 12.9 0.00 0.00 0.00 77 1008.6
20260505220013 28 193 3.2 19.3 0.00 0.00 0.00 77 1008.7
20260505215513 28 206 9.7 19.3 0.00 0.00 0.00 77 1008.7
20260505215012 28 174 9.7 19.3 0.00 0.00 0.00 77 1008.7
20260505214511 28 142 6.4 19.3 0.00 0.00 0.00 76 1008.8
20260505214014 28 215 4.8 16.1 0.00 0.00 0.00 76 1008.9
20260505213511 28 211 6.4 22.5 0.00 0.00 0.00 76 1009.0
20260505213011 28 200 6.4 24.1 0.00 0.00 0.00 76 1008.9
20260505212515 28 167 9.7 24.1 0.00 0.00 0.00 76 1009.0
20260505212012 28 181 4.8 17.7 0.00 0.00 0.00 76 1009.0
20260505211509 28 201 3.2 20.9 0.00 0.00 0.00 76 1009.0
20260505211009 28 203 11.3 24.1 0.00 0.00 0.00 76 1009.1
20260505210510 28 148 4.8 16.1 0.00 0.00 0.00 77 1009.2
20260505210008 28 186 4.8 12.9 0.00 0.00 0.00 78 1009.2
20260505205508 28 237 4.8 19.3 0.00 0.00 0.00 77 1009.2
20260505205009 28 189 9.7 19.3 0.00 0.00 0.00 77 1009.3
20260505204508 28 184 4.8 12.9 0.00 0.00 0.00 77 1009.4
20260505204010 28 229 4.8 11.3 0.00 0.00 0.00 77 1009.3
20260505203506 28 228 3.2 14.5 0.00 0.00 0.00 77 1009.2
20260505203015 28 206 4.8 22.5 0.00 0.00 0.00 78 1009.6
20260505202505 28 138 6.4 20.9 0.00 0.00 0.00 77 1009.7
20260505202004 28 182 8.0 20.9 0.00 0.00 0.00 77 1009.7
20260505201502 28 220 3.2 16.1 0.00 0.00 0.00 77 1010.0
20260505201004 28 198 4.8 16.1 0.00 0.00 0.00 77 1010.0
20260505200502 28 177 3.2 14.5 0.00 0.00 0.00 78 1010.0
20260505200002 28 186 6.4 17.7 0.00 0.00 0.00 78 1010.0
20260505195503 28 188 8.0 22.5 0.00 0.00 0.00 77 1010.2
20260505195100 28 213 3.2 22.5 0.00 0.00 0.00 78 1010.2
20260505194608 28 251 6.4 16.1 0.00 0.00 0.00 78 1010.3
20260505194059 28 189 8.0 17.7 0.00 0.00 0.00 78 1010.3
20260505193558 27 205 4.8 16.1 0.00 0.00 0.00 79 1010.4
20260505193059 27 196 3.2 14.5 0.00 0.00 0.00 79 1010.4
20260505192557 27 183 1.6 19.3 0.00 0.00 0.00 80 1010.5
20260505192056 27 180 8.0 19.3 0.00 0.00 0.00 80 1010.5
20260505191557 27 180 4.8 17.7 0.00 0.00 0.00 81 1010.6
20260505191056 27 230 6.4 14.5 0.00 0.00 0.00 80 1010.6
20260505190600 27 184 3.2 16.1 0.00 0.00 0.00 80 1010.6
20260505190055 27 207 8.0 16.1 0.00 0.00 0.00 79 1010.5
20260505185555 27 238 6.4 14.5 0.00 0.00 0.00 80 1010.6
20260505185054 27 174 1.6 22.5 0.00 0.00 0.00 81 1010.7
20260505184554 27 199 6.4 22.5 0.00 0.00 0.00 81 1010.7
20260505184053 27 193 1.6 14.5 0.00 0.00 0.00 81 1010.8
20260505183555 27 227 4.8 22.5 0.00 0.00 0.00 81 1010.7
20260505183054 26 163 3.2 11.3 0.00 0.00 0.00 81 1010.8
20260505182551 26 198 4.8 14.5 0.00 0.00 0.00 81 1010.8
20260505182052 27 189 4.8 16.1 0.00 0.00 0.00 81 1010.8
20260505181552 27 190 4.8 19.3 0.00 0.00 0.00 81 1010.8
20260505181051 27 174 3.2 22.5 0.00 0.00 0.00 82 1010.8
20260505180553 26 217 6.4 24.1 0.00 0.00 0.00 82 1010.9
20260505180104 26 180 4.8 12.9 0.00 0.00 0.00 82 1011.1
20260505175548 26 240 4.8 14.5 0.00 0.00 0.00 82 1011.1
20260505175048 26 184 6.4 22.5 0.00 0.00 0.00 82 1011.2
20260505174600 26 211 8.0 22.5 0.00 0.00 0.00 82 1011.2
20260505174049 26 227 1.6 24.1 0.00 0.00 0.00 82 1011.2
20260505173547 26 191 8.0 24.1 0.00 0.00 0.00 82 1011.3
20260505173047 26 194 3.2 9.7 0.00 0.00 0.00 83 1011.3
20260505172546 26 180 3.2 9.7 0.00 0.00 0.00 83 1011.4
20260505172045 26 198 3.2 9.7 0.00 0.00 0.00 83 1011.4
20260505171546 26 171 3.2 19.3 0.00 0.00 0.00 84 1011.3
20260505171048 26 188 1.6 19.3 0.00 0.00 0.00 83 1011.4
20260505170547 26 186 3.2 14.5 0.00 0.00 0.00 83 1011.4
20260505170044 26 192 4.8 19.3 0.00 0.00 0.00 84 1011.7
20260505165543 26 197 4.8 19.3 0.00 0.00 0.00 84 1011.7
20260505165046 26 184 1.6 14.5 0.00 0.00 0.00 85 1011.7
20260505164547 25 188 4.8 19.3 0.00 0.00 0.00 85 1011.6
20260505164043 25 184 4.8 19.3 0.00 0.00 0.00 85 1011.7
20260505163543 25 196 6.4 12.9 0.00 0.00 0.00 84 1011.7
20260505163041 25 169 3.2 14.5 0.00 0.00 0.00 84 1011.5
20260505162541 25 180 3.2 12.9 0.00 0.00 0.00 84 1011.5
20260505162041 25 192 3.2 9.7 0.00 0.00 0.00 84 1011.5
20260505161540 25 234 1.6 16.1 0.00 0.00 0.00 85 1011.4
20260505161042 25 190 6.4 16.1 0.00 0.00 0.00 84 1011.5
20260505160540 25 175 3.2 17.7 0.00 0.00 0.00 84 1011.3
20260505153036 25 196 6.4 14.5 0.00 0.00 0.00 86 1011.2
20260505152535 25 182 6.4 14.5 0.00 0.00 0.00 86 1011.1
20260505152035 25 198 1.6 12.9 0.00 0.00 0.00 86 1011.1
20260505151535 25 196 1.6 14.5 0.00 0.00 0.00 86 1011.1
20260505151035 25 180 1.6 14.5 0.00 0.00 0.00 86 1011.1
20260505150534 25 175 1.6 14.5 0.00 0.00 0.00 86 1011.1
20260505140528 24 191 8.0 12.9 0.00 0.00 0.00 88 1011.0
20260505125011 23 146 6.4 11.3 0.00 0.00 0.00 90 1010.8
20260505124509 22 163 4.8 11.3 0.00 0.00 0.00 90 1010.8
20260505124007 22 186 3.2 11.3 0.00 0.00 0.00 90 1010.8
20260505123505 22 175 4.8 11.3 0.00 0.00 0.00 90 1010.8
20260505123004 22 152 4.8 11.3 0.00 0.00 0.00 90 1010.8
20260505122503 22 142 1.6 9.7 0.00 0.00 0.00 90 1010.7
20260505122002 22 153 1.6 9.7 0.00 0.00 0.00 90 1010.7
20260505121603 22 169 4.8 11.3 0.00 0.00 0.00 90 1010.6
20260505121059 22 175 1.6 9.7 0.00 0.00 0.00 90 1010.4
20260505120557 22 213 4.8 11.3 0.00 0.00 0.00 90 1010.3
20260505120057 22 171 3.2 11.3 0.00 0.00 0.00 90 1010.3
20260505115555 22 211 4.8 12.9 0.00 0.00 0.00 90 1010.2
20260505115053 22 182 1.6 11.3 0.00 0.00 0.00 90 1010.2
20260505114552 22 172 4.8 11.3 0.00 0.00 0.00 90 1010.4
20260505114051 22 169 1.6 6.4 0.00 0.00 0.00 90 1010.7
20260505113549 22 196 1.6 6.4 0.00 0.00 0.00 90 1010.6
20260505113059 22 184 1.6 9.7 0.00 0.00 0.00 90 1010.6
20260505112549 22 153 4.8 11.3 0.00 0.00 0.00 90 1010.6
20260505112049 22 178 4.8 11.3 0.00 0.00 0.00 90 1010.5
20260505111549 22 175 3.2 12.9 0.00 0.00 0.00 90 1010.5
20260505111049 22 198 4.8 12.9 0.00 0.00 0.00 90 1010.3
20260505110550 22 174 3.2 12.9 0.00 0.00 0.00 90 1010.3
20260505102045 22 165 1.6 9.7 0.00 0.00 0.00 89 1010.4
20260505101545 22 197 1.6 12.9 0.00 0.00 0.00 89 1010.5
20260505101043 22 165 3.2 12.9 0.00 0.00 0.00 89 1010.5
20260505100542 22 164 4.8 11.3 0.00 0.00 0.00 89 1010.5
20260505100040 22 162 1.6 8.0 0.00 0.00 0.00 89 1010.7
20260505095538 22 173 1.6 12.9 0.00 0.00 0.00 89 1010.6
20260505095037 22 162 3.2 12.9 0.00 0.00 0.00 89 1010.5
20260505094536 22 158 3.2 8.0 0.00 0.00 0.00 89 1010.4
20260505094034 22 178 1.6 12.9 0.00 0.00 0.00 89 1010.4
20260505093532 22 189 3.2 12.9 0.00 0.00 0.00 89 1010.5
20260505093036 22 180 4.8 9.7 0.00 0.00 0.00 89 1010.5
20260505092530 22 184 3.2 9.7 0.00 0.00 0.00 89 1010.6
20260505092029 22 187 3.2 11.3 0.00 0.00 0.00 89 1010.7
20260505091527 22 168 1.6 12.9 0.00 0.00 0.00 89 1010.7
20260505091026 22 179 6.4 12.9 0.00 0.00 0.00 89 1010.8
20260505090525 22 206 4.8 9.7 0.00 0.00 0.00 89 1010.9
20260505090026 22 173 4.8 9.7 0.00 0.00 0.00 89 1010.8
20260505085522 22 175 0.0 8.0 0.00 0.00 0.00 89 1010.9
20260505085022 22 184 3.2 8.0 0.00 0.00 0.00 89 1010.7
20260505084519 22 133 1.6 9.7 0.00 0.00 0.00 89 1010.7
20260505084019 22 180 3.2 9.7 0.00 0.00 0.00 89 1010.8
20260505083517 22 150 1.6 12.9 0.00 0.00 0.00 88 1010.9
20260505083024 22 183 4.8 11.3 0.00 0.00 0.00 88 1011.0
20260505082519 22 167 3.2 9.7 0.00 0.00 0.00 88 1010.9
20260505082016 22 179 3.2 9.7 0.00 0.00 0.00 88 1011.0
20260505081516 22 185 1.6 11.3 0.00 0.00 0.00 88 1011.1
20260505081015 22 152 4.8 11.3 0.00 0.00 0.00 88 1011.2
20260505080515 22 181 4.8 14.5 0.00 0.00 0.00 88 1011.1
20260505080014 22 164 4.8 14.5 0.00 0.00 0.00 88 1011.2
20260505075515 22 114 3.2 11.3 0.00 0.00 0.00 87 1011.3
20260505075017 22 184 4.8 11.3 0.00 0.00 0.00 87 1011.2
20260505074513 22 187 6.4 14.5 0.00 0.00 0.00 87 1011.2
20260505074113 22 180 1.6 14.5 0.00 0.00 0.00 87 1011.3
20260505073513 21 196 4.8 11.3 0.00 0.00 0.00 87 1011.2
20260505073012 21 161 1.6 9.7 0.00 0.00 0.00 87 1011.3
20260505072519 21 150 3.2 9.7 0.00 0.00 0.00 87 1011.3
20260505072011 21 180 4.8 8.0 0.00 0.00 0.00 87 1011.5
20260505071511 21 172 3.2 8.0 0.00 0.00 0.00 87 1011.4
20260505071010 21 159 3.2 8.0 0.00 0.00 0.00 87 1011.5
20260505070514 21 158 1.6 11.3 0.00 0.00 0.00 86 1011.3
20260505070008 21 196 3.2 11.3 0.00 0.00 0.00 86 1011.4
20260505065509 21 159 3.2 11.3 0.00 0.00 0.00 86 1011.5
20260505065008 21 177 1.6 9.7 0.00 0.00 0.00 86 1011.7
20260505064508 21 182 3.2 9.7 0.00 0.00 0.00 86 1011.7
20260505064006 21 176 4.8 11.3 0.00 0.00 0.00 86 1011.8
20260505063505 21 186 3.2 9.7 0.00 0.00 0.00 86 1011.8
20260505063004 21 159 3.2 14.5 0.00 0.00 0.00 85 1012.0
20260505062506 21 162 6.4 14.5 0.00 0.00 0.00 85 1012.1
20260505062003 21 134 1.6 11.3 0.00 0.00 0.00 85 1012.2
20260505061505 21 159 1.6 14.5 0.00 0.00 0.00 85 1012.3
20260505061002 21 134 3.2 14.5 0.00 0.00 0.00 85 1012.5
20260505060500 21 180 1.6 12.9 0.00 0.00 0.00 85 1012.3
20260505060105 21 186 3.2 12.9 0.00 0.00 0.00 85 1012.2
20260505055600 21 182 3.2 16.1 0.00 0.00 0.00 84 1012.3
20260505055100 21 182 6.4 16.1 0.00 0.00 0.00 84 1012.3
20260505054610 21 136 4.8 12.9 0.00 0.00 0.00 84 1012.2
20260505054057 21 148 3.2 9.7 0.00 0.00 0.00 84 1012.3
20260505053557 21 153 4.8 16.1 0.00 0.00 0.00 83 1012.5
20260505053058 22 171 4.8 16.1 0.00 0.00 0.00 83 1012.4
20260505052555 22 174 4.8 12.9 0.00 0.00 0.00 83 1012.6
20260505052055 22 141 3.2 11.3 0.00 0.00 0.00 83 1012.7
20260505051612 22 184 6.4 12.9 0.00 0.00 0.00 83 1012.6
20260505051055 22 185 4.8 16.1 0.00 0.00 0.00 83 1012.6
20260505050553 22 182 6.4 16.1 0.00 0.00 0.00 83 1012.6
20260505041553 22 250 8.0 14.5 0.00 0.00 0.00 81 1012.5
20260505041051 22 157 6.4 16.1 0.00 0.00 0.00 80 1012.5
20260505040551 22 175 3.2 17.7 0.00 0.00 0.00 80 1012.8
20260505040051 22 148 8.0 17.7 0.00 0.00 0.00 80 1013.0
20260505035550 22 180 6.4 16.1 0.00 0.00 0.00 80 1012.9
20260505035050 22 182 6.4 16.1 0.00 0.00 0.00 79 1012.8
20260505034550 22 161 8.0 17.7 0.00 0.00 0.00 79 1013.1
20260505034049 22 141 8.0 22.5 0.00 0.00 0.00 79 1013.1
20260505033550 22 187 6.4 22.5 0.00 0.00 0.00 79 1013.0
20260505033049 22 169 6.4 16.1 0.00 0.00 0.00 79 1013.2
20260505032549 22 173 4.8 17.7 0.00 0.00 0.00 79 1013.1
20260505032048 22 174 6.4 17.7 0.00 0.00 0.00 78 1013.0
20260505031555 22 184 8.0 25.7 0.00 0.00 0.00 78 1012.9
20260505031049 22 239 9.7 25.7 0.00 0.00 0.00 78 1012.9
20260505030548 22 130 8.0 19.3 0.00 0.00 0.00 78 1013.0
20260505030048 23 171 8.0 19.3 0.00 0.00 0.00 78 1013.0
20260505025548 23 175 6.4 16.1 0.00 0.00 0.00 78 1013.0
20260505025047 23 148 8.0 16.1 0.00 0.00 0.00 78 1013.1
20260505024553 23 209 8.0 14.5 0.00 0.00 0.00 77 1013.2
20260505024047 23 146 6.4 14.5 0.00 0.00 0.00 77 1012.9
20260505023547 23 152 8.0 19.3 0.00 0.00 0.00 77 1012.9
20260505023047 23 210 6.4 19.3 0.00 0.00 0.00 77 1012.9
20260505022548 23 153 4.8 16.1 0.00 0.00 0.00 77 1012.8
20260505022047 23 182 4.8 12.9 0.00 0.00 0.00 77 1012.7
20260505021550 23 159 6.4 14.5 0.00 0.00 0.00 77 1012.8
20260505021048 23 192 8.0 17.7 0.00 0.00 0.00 77 1012.8
20260505020546 23 174 6.4 17.7 0.00 0.00 0.00 77 1012.7
20260505020050 23 111 4.8 25.7 0.00 0.00 0.00 76 1012.6
20260505015546 23 199 11.3 25.7 0.00 0.00 0.00 76 1012.7
20260505015049 23 211 3.2 22.5 0.00 0.00 0.00 76 1012.5
20260505014551 23 144 8.0 22.5 0.00 0.00 0.00 76 1012.6
20260505014044 23 182 4.8 17.7 0.00 0.00 0.00 76 1012.5
20260505013544 23 191 6.4 17.7 0.00 0.00 0.00 75 1012.4
20260505013045 23 213 6.4 20.9 0.00 0.00 0.00 75 1012.5
20260505012544 23 167 9.7 17.7 0.00 0.00 0.00 75 1012.5
20260505012044 23 166 3.2 16.1 0.00 0.00 0.00 74 1012.3
20260505011544 23 160 4.8 16.1 0.00 0.00 0.00 74 1012.3
20260505011044 23 150 6.4 14.5 0.00 0.00 0.00 74 1012.4
20260505010543 23 149 4.8 16.1 0.00 0.00 0.00 73 1012.5
20260505010053 24 168 4.8 11.3 0.00 0.00 0.00 73 1012.4
20260505005542 24 157 4.8 12.9 0.00 0.00 0.00 73 1012.3
20260505005042 24 155 6.4 16.1 0.00 0.00 0.00 73 1012.3
20260505004543 24 160 6.4 16.1 0.00 0.00 0.00 73 1012.3
20260505004040 24 188 3.2 14.5 0.00 0.00 0.00 73 1012.2
20260505003540 24 115 6.4 14.5 0.00 0.00 0.00 72 1012.2
20260505003040 24 177 6.4 14.5 0.00 0.00 0.00 72 1012.2